Location: Aragoneses
(41.0275°N, 4.3847°W)
Time: 16:46:26
(UTC+00:00)

SL-16 R/B - Pass Details

Date: 11 December 2025
Orbit: 841 x 845 km, 71.0° (Epoch: 16 January)

Event Time Altitude Azimuth Distance (km) Brightness Sun altitude
Rises 19:33:17 0° 196° (SSW) 3,381 5.6 -30.1°
Reaches altitude 10° 19:35:43 10° 195° (SSW) 2,451 4.8 -30.5°
Enters shadow 19:38:26 30° 190° (S) 1,471 3.5 -31.0°
